User: anonymous
Location: Los Gatos B&B
(42.6926°N, 77.0646°W)
Time: 04:24:45
(UTC-04:00)
Language:

Cosmos 2263 Rocket - Orbit

View from above orbital plane
View from above orbital plane
View from above satellite
View from above satellite

Ground track
Ground track

The orbit data is extracted from the following two-line orbital elements,

1 22803U 93059B   14115.17562691 -.00000247  00000-0 -99331-4 0  2571
2 22803 070.9884 150.4903 0018614 329.2064 030.7966 14.16663035 65547
Epoch (UTC): 25 April 2014 04:12:54
Eccentricity: 0.0018614
inclination: 70.9884°
perigee height: 823 km
apogee height: 850 km
right ascension of ascending node: 150.4903°
argument of perigee: 329.2064°
revolutions per day: 14.16663035
mean anomaly at epoch: 30.7966°
orbit number at epoch: 6554

The dashed part of the orbit path shows where the satellite is in the earth's shadow,  

DLR